Weather History for Champaign, IL

Change the Weather History Date:

Saturday, February 16, 2013

  Actual Average Record
Temperature  
Mean Temperature 22 °F 30 °F  
Max Temperature 28 °F 38 °F 60 °F (2006)
Min Temperature 15 °F 21 °F -9 °F (2007)
Degree Days  
Heating Degree Days 43 35  
Month to date heating degree days 541 598  
Since 1 July heating degree days 3725 4108  
Cooling Degree Days 0 0  
Month to date cooling degree days 0 0  
Year to date cooling degree days 0 0  
Moisture  
Dew Point 11 °F    
Average Humidity 63    
Maximum Humidity 80    
Minimum Humidity 46    
Precipitation  
Precipitation 0.00 in 0.07 in 0.40 in (2006)
Month to date precipitation 0.72 1.17  
Year to date precipitation 3.09 3.22  
Sea Level Pressure  
Sea Level Pressure 30.19 in    
Wind  
Wind Speed 12 mph (NW)    
Max Wind Speed 20 mph    
Max Gust Speed 23 mph    
Visibility 10 miles    
Events      
T = Trace of Precipitation, MM = Missing Value Source: NWS Daily Summary

Daily Weather History Graph

Daily Weather History Graph

Search for Another Location

Airport:

Trip Planner

Search our weather history database for the weather conditions in past years. The results will help you decide how hot, cold, wet, or windy it might be!

Date:

Astronomy

Feb. 16, 2013 Rise Set
Actual Time 6:44 AM CST 5:30 PM CST
Civil Twilight 6:16 AM CST 5:58 PM CST
Nautical Twilight 5:45 AM CST 6:29 PM CST
Astronomical Twilight 5:13 AM CST 7:01 PM CST
Moon 9:57 AM CST (2/16) No Moon Set
Length of Visible Light 11h 41m
Length of Day
10h 46m
Waxing Crescent, 39% of the Moon is Illuminated
Feb 16
Waxing Crescent
Feb 17
First Quarter
Feb 25
Full
Mar 4
Last Quarter
Mar 11
New

Hourly Weather History & Observations

Time (CST) Temp. Windchill Dew Point Humidity Pressure Visibility Wind Dir Wind Speed Gust Speed Precip Events Conditions
12:53 AM 21.9 °F 9.2 °F 14.0 °F 72% 30.20 in 10.0 mi NW 13.8 mph - N/A   Clear
1:53 AM 21.0 °F 8.1 °F 12.9 °F 71% 30.19 in 10.0 mi NW 13.8 mph - N/A   Clear
2:53 AM 19.9 °F 7.3 °F 12.9 °F 74% 30.18 in 10.0 mi NW 12.7 mph - N/A   Clear
3:53 AM 19.0 °F 6.8 °F 12.9 °F 77% 30.18 in 10.0 mi NW 11.5 mph - N/A   Clear
4:53 AM 18.0 °F 6.1 °F 10.9 °F 74% 30.19 in 10.0 mi NW 10.4 mph - N/A   Partly Cloudy
5:53 AM 18.0 °F 7.7 °F 12.0 °F 78% 30.20 in 10.0 mi NNW 8.1 mph - N/A   Mostly Cloudy
6:53 AM 16.0 °F 3.6 °F 10.0 °F 77% 30.21 in 10.0 mi NNW 10.4 mph - N/A   Scattered Clouds
7:53 AM 19.0 °F 5.0 °F 10.9 °F 71% 30.23 in 10.0 mi WNW 15.0 mph - N/A   Scattered Clouds
8:02 AM 17.6 °F 4.3 °F 8.6 °F 68% 30.19 in 10.0 mi WNW 12.7 mph - N/A   Scattered Clouds
8:53 AM 19.0 °F 6.1 °F 9.0 °F 65% 30.23 in 10.0 mi NW 12.7 mph - N/A   Partly Cloudy
9:53 AM 21.0 °F 9.3 °F 8.1 °F 57% 30.23 in 10.0 mi WNW 11.5 mph - N/A   Clear
10:53 AM 21.9 °F 9.8 °F 9.0 °F 58% 30.23 in 10.0 mi NW 12.7 mph - N/A   Scattered Clouds
11:53 AM 24.1 °F 12.0 °F 10.0 °F 55% 30.21 in 10.0 mi WNW 13.8 mph 20.7 mph N/A   Clear
12:53 PM 26.1 °F 15.0 °F 10.9 °F 53% 30.19 in 10.0 mi WNW 12.7 mph 21.9 mph N/A   Partly Cloudy
1:53 PM 28.0 °F 17.0 °F 12.0 °F 51% 30.17 in 10.0 mi WNW 13.8 mph 20.7 mph N/A   Scattered Clouds
2:53 PM 27.0 °F 14.3 °F 10.9 °F 51% 30.16 in 10.0 mi WNW 17.3 mph 21.9 mph N/A   Mostly Cloudy
3:53 PM 28.0 °F 15.3 °F 10.9 °F 49% 30.16 in 10.0 mi WNW 18.4 mph 23.0 mph N/A   Mostly Cloudy
4:53 PM 28.0 °F 16.1 °F 10.9 °F 49% 30.16 in 10.0 mi West 16.1 mph - N/A   Mostly Cloudy
5:53 PM 25.0 °F 16.3 °F 12.9 °F 60% 30.17 in 10.0 mi WNW 8.1 mph - N/A   Mostly Cloudy
6:53 PM 24.1 °F 13.7 °F 12.9 °F 62% 30.18 in 10.0 mi WNW 10.4 mph - N/A   Clear
7:53 PM 19.9 °F 10.1 °F 14.0 °F 78% 30.19 in 10.0 mi NW 8.1 mph - N/A   Scattered Clouds
8:53 PM 23.0 °F 12.4 °F 14.0 °F 68% 30.20 in 10.0 mi NNW 10.4 mph - N/A   Overcast
9:53 PM 19.9 °F 7.9 °F 12.0 °F 71% 30.20 in 10.0 mi North 11.5 mph - N/A   Clear
10:53 PM 17.1 °F 4.3 °F 8.1 °F 68% 30.21 in 10.0 mi North 11.5 mph - N/A   Clear
11:53 PM 16.0 °F 5.3 °F 8.1 °F 71% 30.21 in 10.0 mi NE 8.1 mph - N/A   Clear